Current Version              Previous Version:    01  02  03  04  05  06  07  08  09  10  11  12  13  14  15  16  17  18  19  20  21  22  23  24  25  26  27  28  29  30  
   31  32  33  34  35  36  37  38  39  40  41  42  43  44  45  46  47  48  49  50  51  52  53  54  55  56  57  58  59  60  

[Printable]
755
ASUS44 KLUB 010910
RWRTX
WEST TEXAS WEATHER ROUNDUP
NATIONAL WEATHER SERVICE LUBBOCK TX
300 AM CST SUN FEB 01 2015

NOTE: "FAIR" INDICATES FEW OR NO CLOUDS BELOW 12,000 FEET WITH NO
SIGNIFICANT WEATHER AND/OR OBSTRUCTIONS TO VISIBILITY.

TXZ004-006>008-010-012-014-016-OKZ002-011000-
TEXAS PANHANDLE/OKLAHOMA PANHANDLE

CITY           SKY/WX    TMP DP  RH WIND       PRES   REMARKS
AMARILLO       MOCLDY    40  38  93 N13       29.86R WCI  32
BORGER         CLOUDY    40  36  86 NW5       29.87R
CANADIAN       CLOUDY    43  41  93 NW7       29.85R
DALHART        CLEAR     37  33  85 NW8       29.89R WCI  31
DUMAS          PTCLDY    34  33  96 NW9       29.87R WCI  26
GUYMON         CLOUDY    40  37  89 NW13      29.87R WCI  32
HEREFORD       MOCLDY    38  38  98 NW7       29.87R WCI  33
PAMPA          CLOUDY    39  38  94 N10       29.86R WCI  32
PERRYTON       CLOUDY    39  37  91 NW14      29.86R WCI  31
$$

TXZ026-029-035-045-048-011000-
SOUTHERN PANHANDLE/SOUTH PLAINS/ROLLING PLAINS

CITY           SKY/WX    TMP DP  RH WIND       PRES   REMARKS
CHILDRESS      CLOUDY    44  43  96 SW6       29.84F
SEMINOLE       FOG       46  46 100 W13       29.89S VSB 1
LUBBOCK        PTCLDY    42  42 100 W8        29.85R FOG
PLAINVIEW      CLOUDY    43  41  93 NW13      29.84R
SNYDER         CLOUDY   N/A N/A N/A SW8       29.87S FOG
$$

TXZ052-054-060>062-072-078-127-140-154-169-011000-
PERMIAN BASIN/CONCHO VALLEY/BIG COUNTRY/EDWARDS PLATEAU

CITY           SKY/WX    TMP DP  RH WIND       PRES   REMARKS
ABILENE        CLOUDY    54  52  93 SW12      29.85F
BIG SPRING     CLOUDY    51  49  93 S12       29.89S VSB 1
BROWNWOOD      CLOUDY    54  54 100 SE9       29.87F FOG
JUNCTION       PTCLDY    57  55  93 S5        29.87F
MIDLAND        FOG       47  46  97 SW10      29.88S VSB 1/4
ODESSA         FOG       45  44  97 SW6       29.88F VSB 1/4
SAN ANGELO     CLEAR     50  49  96 SW5       29.86F
SONORA         MOCLDY    52  52 100 CALM      29.92S
SWEETWATER     CLOUDY    53  53 100 SW13      29.89R
WINK           FOG       43  41  93 CALM      29.88S VSB 1/4
$$

TXZ055-058-074-075-080-082-011000-
FAR WEST/SOUTHWEST MOUNTAINS/TRANS PECOS

CITY           SKY/WX    TMP DP  RH WIND       PRES   REMARKS
ALPINE         PTCLDY    43  38  84 SW7       30.02R
DRYDEN           N/A     49  48  97 CALM      29.90S
EL PASO        MOCLDY    50  41  71 W7        29.93S
FORT STOCKTON  CLEAR     47  43  86 SW10      29.91S
GUADALUPE PASS FOG       40  39  97 SW16      29.93S VSB 1/4 WCI  31
MARFA          PTCLDY    34  32  93 CALM      29.99R
PECOS          FOG       38  38  97 CALM      29.91S VSB 1/4
PRESIDIO       FAIR      48  45  87 N6        29.93S
$$

TXZ014-016-019-021>030-083-011000
TEXAS TECH WEST TEXAS MESONET/TEXAS PANHANDLE/NORTHERN SOUTH PLAINS

CITY           SKY/WX    TMP DP  RH WIND       PRES   REMARKS
ABERNATHY 5ENE   N/A     42  42  98 W8        29.87R
AMARILLO 9NNE    N/A     38  37  94 N8        29.87R WCI  33
AMARILLO 7SSE    N/A     40  38  95 NW12      29.86R WCI  33
AMHERST 1NE      N/A     40  40  99 NW14      29.86R WCI  32
BOOTLEG 11WNW    N/A     35  34  97 N9        29.88R WCI  27
CANADIAN 6E      N/A     41  38  91 NW10      29.83R
CAPROCK CYN SP   N/A     45  43  93 W9        29.84F
CLARENDON 2WSW   N/A     40  39  96 W3        29.84R
CLAUDE 12SW      N/A     39  39  99 NW10      29.84R WCI  32
DIMMITT 2NE      N/A     39  38  94 W8        29.85S WCI  33
FLOYDADA 2NNE    N/A     44  43  99 W12       29.85R
FRIONA 2NE       N/A     35  34  95 W7        29.87R WCI  29
GOODLETT 3W      N/A     44  43  96 SW5       29.84S
HART 3N          N/A     38  37  96 W8        29.85S WCI  32
HEREFORD 2NW     N/A     37  35  96 NW9       29.86R WCI  30
MCLEAN 1E        N/A     40  40  99 NW9       29.82R WCI  34
MEMPHIS 1NE      N/A     43  42  99 W2        29.83S
MULESHOE 2SSW    N/A     33  33  99 SW6       29.88R WCI  28
OLTON 6S         N/A     40  39  95 NW13      29.85S WCI  33
PALO DURO SP     N/A     41  39  92 NW8       29.86R
PAMPA 2E         N/A     39  38  95 NW13      29.84S WCI  31
PLAINVIEW 1S     N/A     43  42  95 NW12      29.84S
SILVERTON 7ESE   N/A     42  40  95 W10       29.84R
TULIA 2ENE       N/A     40  39  97 W12       29.84R WCI  33
TURKEY 2WSW      N/A     44  43  99 W2        29.82F
UMBARGER 3NNE    N/A     40  38  93 N13       29.86R WCI  32
$$

TXZ033>036-039>041-045>048-011000
TEXAS TECH WEST TEXAS MESONET/SOUTH PLAINS

CITY           SKY/WX    TMP DP  RH WIND       PRES   REMARKS
AIKEN 3WSW       N/A     43  42  96 NW13      29.86R
ANDREWS 2NE      N/A     47  45  94 SW10      29.88S
BROWNFIELD 2S    N/A     44  43  96 W10       29.86F
DENVR CTY 7WNW   N/A     41  40  98 W9        29.87F
GAIL 2ESE        N/A     49  48  97 SW8       29.86R
LAMESA 2SE       N/A     48  47  99 W10       29.88R
LEVELLAND 4S     N/A     42  40  93 SW9       29.86R
LUBBOCK 3WNW     N/A     45  44  97 SW9       29.85S
MORTON 1ENE      N/A     39  39  99 W8        29.86R WCI  34
ODONNELL 1N      N/A     47  46  97 W9        29.87R
PLAINS 3N        N/A     42  41  98 SW8       29.87S
RALLS 1SE        N/A     44  44  99 W8        29.85S
REESE CENTER     N/A     42  41  97 W8        29.85S
SEAGRAVES 1SW    N/A     45  45  99 W9        29.88R
SEMINOLE 2NNE    N/A     46  45  97 W8        29.88S
SLATON 2NE       N/A     46  44  95 SW14      29.84F
SNYDER 3E        N/A     48  48  99 SW7       29.86R
SUNDOWN 8SW      N/A     42  41  98 SW10      29.86S
TAHOKA 3NNE      N/A     47  46  97 SW15      29.86R
WOLFFORTH 6SSW   N/A     43  43  99 SW8       29.86S
$$

TXZ031-032-036>038-042>044-011000-
TEXAS TECH WEST TEXAS MESONET/ROLLING PLAINS

CITY           SKY/WX    TMP DP  RH WIND       PRES   REMARKS
ASPERMONT 3NE    N/A     51  49  94 SW10      29.83F
FLUVANNA 3WNW    N/A     48  47  96 SW7       29.86R
GRAHAM 5SSW      N/A     47  47  97 W13       29.85S
GUTHRIE 10WSW    N/A     44  44  98 S3        29.83F
HASKELL 1NW      N/A     50  49  97 SW5       29.83S
JAYTON 1SSE      N/A     48  48  98 SW7       29.85R
KNOX CITY 3NW    N/A     48  46  92 W6        29.85R
LK A HENRY 1NW   N/A     48  47  99 W6        29.85R
NORTHFIELD 1S    N/A     43  43  99 S6        29.84R
ODELL 4ENE       N/A     44  44 100 W1        29.85S
PADUCAH 10SW     N/A     43  43  98 NW6       29.84S
POST 1NE         N/A     49  47  90 SW16      29.84S
RRING SPRGS 3N   N/A     46  46  99 NW7       29.84R
SEYMOUR 3NW      N/A     49  47  95 W7        29.84R
SPUR 1W          N/A     43  42  97 SW6       29.83F
WEINERT 2NNE     N/A     50  49  97 SW5       29.84S
WHITE RVR 6NE    N/A     46  46  97 SW9       29.83S
$$

TXZ052-054-060>062-072-078-127-140-154-169-011000-
TEXAS TECH WEST TEXAS MESONET/PERMIAN BASIN/
CONCHO VALLEY/BIG COUNTRY/EDWARDS PLATEAU

CITY           SKY/WX    TMP DP  RH WIND       PRES   REMARKS
COYANOSA 2N      N/A     42  41  99 SW1       29.90F
JUNCTION 1SSW    N/A     56  55  93 S3        29.88F
MERTZON 3NNE     N/A     49  48  95 S3        29.88F
SAN ANGELO 7NW   N/A     51  49  94 W1        29.87F
STRLNG CT 4WSW   N/A     48  47  95 SW1       29.88S
ST LAWRNCE 5SW   N/A     46  45  99 SW7       29.88S
SWEETWATR 11SW   N/A     51  50  99 SW9       29.87S
WALL 1E          N/A     51  48  90 SW6       29.87S
$$

TXZ055-058-074-075-080-082-011000-
TEXAS TECH WEST TEXAS MESONET/FAR WEST/SOUTHWEST MOUNTAINS/TRANS PECOS

CITY           SKY/WX    TMP DP  RH WIND       PRES   REMARKS
PRSMN GAP BBNP   N/A     48  47  96 NE2       29.93S
GUADLPE MTN NP   N/A     46  35  67 W14       29.91F
$$